Regional Weather Roundup
Issued by NWS Midland/Odessa, TX

Home | Current Version | Previous Version | Text Only | Print | Product List | Glossary On
Versions: 1 2 3 4 5 6 7 8 9 10 11 12 13 14 15 16 17 18 19 20 21 22 23 24 25 26 27 28 29 30 31 32 33 34 35 36 37 38 39 40 41 42 43 44 45 46 47 48 49 50
000
ASUS44 KMAF 111110
RWRMAF
MIDLAND AREA WEATHER ROUNDUP
NATIONAL WEATHER SERVICE MIDLAND TX
500 AM CST THU FEB 11 2016

...IN SOUTHWEST TEXAS AND SOUTHEAST NEW MEXICO...

CITY           SKY/WX    TMP DP  RH WIND       PRES   REMARKS
ALPINE         CLOUDY    49  15  25 SW5       30.27R
ANDREWS        FAIR      47  19  32 W7        30.11S
ARTESIA        CLOUDY    37  19  48 CALM      30.15F
BIG SPRING     CLOUDY    37  21  52 CALM      30.13S
CARLSBAD       CLOUDY    39  20  46 N6        30.12F WCI  35
DRYDEN           N/A     42  21  43 W7        30.11F WCI  38
FORT STOCKTON  CLEAR     49  20  31 SW15      30.13F
GUAD PASS      CLEAR     47  14  26 SW13G22   30.23F
HOBBS          CLEAR     39  19  45 W9        30.13S WCI  33
MARFA          CLOUDY    25  12  58 N5        30.25R WCI  19
MIDLAND AIRPK  CLOUDY    50  23  34 SW6       30.12S
MIDLAND INTL   CLEAR     43  24  47 SW6       30.11S WCI  39
ODESSA         CLOUDY    42  22  44 W7        30.12S WCI  38
PECOS          CLOUDY    40  19  41 W7        30.14S WCI  36
PRESIDIO       FAIR      46  15  29 N7        30.18S
SEMINOLE       CLOUDY    36  19  50 W3        30.12S
SNYDER           N/A     45  24  43 SW8       30.10S
WINK           CLOUDY    32  19  58 N6        30.12S WCI  26
$$
...OTHER STATIONS IN TEXAS...

CITY           SKY/WX    TMP DP  RH WIND       PRES   REMARKS
ABILENE        CLEAR     55  26  32 SW12      30.07R
AMARILLO       CLOUDY    36  19  50 N10       30.14R WCI  28
AUSTIN         CLEAR     55  32  41 SW5       30.14S
BROWNSVILLE    CLEAR     59  53  80 S12       30.21S
CORPUS CHRISTI CLEAR     43  38  82 S8        30.18S WCI  38
DALLAS FTW     CLEAR     49  30  48 SW7       30.02R
DEL RIO        CLEAR     49  27  42 E10       30.11S
EL PASO        MOCLDY    40  17  39 N7        30.22S WCI  35
HOUSTON INT    CLEAR     57  48  72 SW8       30.17R
LUBBOCK        CLEAR     31  17  56 W6        30.08S WCI  25
SAN ANGELO     CLEAR     53  26  35 SW9       30.10S
SAN ANTONIO    CLEAR     51  32  48 W5        30.16F
WACO           CLEAR     42  32  67 S8        30.08S WCI  37
WICHITA FALLS  NOT AVBL
$$
...OTHER LOCATIONS IN NEW MEXICO...

CITY           SKY/WX    TMP DP  RH WIND       PRES   REMARKS
ALAMAGORDO     CLOUDY    37  14  38 N6        30.24R WCI  33
ALBUQUERQUE    CLOUDY    40  22  48 NE9       30.31S WCI  34
CANNON AFB     CLOUDY    43  14  30 N18       30.13R WCI  35
CLOVIS         CLOUDY    43  16  33 N20       30.14R WCI  34
HOLLOMAN AFB   NOT AVBL
ROSWELL        CLOUDY    34  19  54 CALM      30.15R
RUIDOSO          N/A     46  10  23 NW6       30.30F
SANTA FE       CLOUDY    32  19  58 N10       30.28F WCI  24
TRUTH OR CONSE PTCLDY    42  14  32 NW8       30.28S WCI  37
TUCUMCARI      CLOUDY    39  11  31 N10       30.18R WCI  32
$$



USA.gov is the U.S. government's official web portal to all federal, state and local government web resources and services.